Terug naar catalogus

STARLINK-35336

ActiefCommunicatieVLEO
NORAD 66006·PAYLOAD·🇺🇸 United States

Gelanceerd Oct 16, 2025 vanaf Cape Canaveral Space Force Station

Loading…

Volgende Passages (komende 24 uur)

TLE

VersSource: CelesTrak SupGP

Epoch: Sep 14, 2026, 22:39 UTC

1 66006C 25232B   26257.94423611  .00042835  00000+0  12661-2 0  2570
2 66006  53.1591 301.5809 0001133  80.6644  49.8794 15.34356941    19

Volg STARLINK-35336 in realtime met AllMySat

Download on the App Store